SL-16 DEB, 39873

Orbit data source: Space-Track

SL-16 DEB, 39873 is space debris in LEO originally from a launch on Fri, 26 Mar 1993 UTC launched from the Tyuratam Missile And Space Complex (TTMTR). Debris objects in space refer to the collection of defunct objects orbiting the Earth. Examples of debris include non-operational satellites, rocket bodies, and fragments generated from explosions, collisions, or faulty payload assembly.

Loading next visibility...
Identifier
39873, 1993-016AX
Orbit
LEO
Country
Flag of CISCIS
Related business
Manufacturer
Unknown
Mission
Spacecraft
Bus & Motor
Unknown
Mass
Unknown
Launch date (UTC)
1993-03-26 (33 years ago)
Launch vehicle
Unknown
Launch site
Tyuratam Missile And Space Complex (TTMTR)
Object type
Payload
Rocket body
Debris
Shape & HBR
Unknown shape, 0.1 m
Radar Cross Section
Small (<0.1 m²)

Expand to show TLE details & history
Last TLE update: 3 days ago

TLE from 3 days ago
0 SL-16 DEB
1 39873U 93016AX  25339.11877726  .00014850  00000-0  42969-2 0  9990
2 39873  70.3927 255.7997 0077717  86.9511 274.0512 14.42808744597412
Epoch: 2025-12-05T02:51Z
TLE epoch observation values (Epoch: 2025-12-05T02:51:02.355Z)
Latitude
0.00003°
Longitude
138.87445°
Altitude
748.139 km
Speed
7.483 km/s
True Right ascension
17h 03m 11s
True Declination
0° 00' 00"
Sunlit
Object was in daylight at epoch
Visualization orbit readout
Latitude
Unknown
Longitude
Unknown
Altitude
Unknown
Speed
Unknown
Apparent Right ascension
Unknown
Apparent Declination
Unknown
Sunlit
N/A
Visualization observer readout
Local Sidereal Time
15:58:50
Azimuth
Unknown
Elevation
Unknown
Doppler factor
Unknown
Orbital elements
Apogee altitude
802.568 km
Perigee altitude
691.816 km
Semi-major axis
7,125.329 km
Eccentricity
0.00777
Inclination
70.3927°
RAAN
255.7997°
Arg. of periapsis
86.9511°
True anomaly
273.16228°
Mean anomaly
274.0512°
Eccentric anomaly
273.6068°
Mean motion
3.60858 °/min
Orbital period
99.76 mins
BSTAR
0.0042969
Loading maneuver chart data...
Computing Atmospheric mass density...
Loading historical data...
Loading historical data...
Loading historical data...
Loading historical data...
Loading historical data...
Loading historical data...
Loading historical data...

Documentation

Showing up to 5 results
|